WC4PEM-10 Weather Reports


time (UTC)temp
C
wind
direction
speed
KPH
gust
KPH
rain 1hr
cm
rain 24hr
cm
rain mn
cm
humidity
%
barometer
mb
20260510134113 25 200 3.2 8.0 0.00 0.10 0.00 89 1016.1
20260510133614 25 144 4.8 8.0 0.00 0.10 0.00 89 1015.9
20260510133114 25 162 4.8 9.7 0.00 0.10 0.00 89 1016.0
20260510132818 25 153 4.8 11.3 0.00 0.10 0.00 90 1015.8
20260510132614 25 153 4.8 11.3 0.00 0.10 0.00 90 1015.8
20260510132207 24 153 4.8 9.7 0.00 0.10 0.00 91 1015.9
20260510132114 24 153 4.8 9.7 0.00 0.10 0.00 91 1015.9
20260510131614 24 126 4.8 6.4 0.00 0.10 0.00 92 1016.0
20260510131355 24 187 4.8 11.3 0.00 0.10 0.00 92 1015.9
20260510131114 24 187 4.8 11.3 0.00 0.10 0.00 92 1015.9
20260510130821 24 165 4.8 6.4 0.00 0.10 0.00 92 1015.8
20260510130614 24 165 4.8 6.4 0.00 0.10 0.00 92 1015.8
20260510130114 23 93 4.8 8.0 0.00 0.10 0.00 93 1015.9
20260510125846 23 111 3.2 6.4 0.00 0.10 0.00 94 1015.8
20260510125617 23 239 1.6 6.4 0.00 0.10 0.00 94 1016.0
20260510125614 23 111 3.2 6.4 0.00 0.10 0.00 94 1015.8
20260510125359 23 239 1.6 6.4 0.00 0.10 0.00 94 1016.0
20260510125251 23 229 3.2 9.7 0.00 0.10 0.00 94 1016.0
20260510125114 23 229 3.2 9.7 0.00 0.10 0.00 94 1016.0
20260510124755 23 239 1.6 6.4 0.00 0.10 0.00 94 1016.0
20260510124614 23 239 1.6 6.4 0.00 0.10 0.00 94 1016.0